User: anonymous   Login
Location: Mt. Chestnut Observatory
(40.9038°N, 79.9956°W)
Time: 05:11:28
(UTC-05:00)
Language:

Cosmos 2034 Rocket - Orbit

View from above orbital plane
View from above orbital plane
View from above satellite
View from above satellite

Ground track
Ground track

The orbit data is extracted from the following two-line orbital elements,

1 20150U 89059B   16037.81839803 +.00000029 +00000-0 +14364-4 0  9999
2 20150 082.9394 102.3346 0027981 226.3284 270.9086 13.75615027331936
Epoch (UTC): 06 February 2016 19:38:29
Eccentricity: 0.0027981
inclination: 82.9394°
perigee height: 959 km
apogee height: 1000 km
right ascension of ascending node: 102.3346°
argument of perigee: 226.3284°
revolutions per day: 13.75615027
mean anomaly at epoch: 270.9086°
orbit number at epoch: 33193

The dashed part of the orbit path shows where the satellite is in the earth's shadow,  

DLR